Miscellaneous Local Product
Issued by NWS North Platte, NE

Home | Current Version | Previous Version | Text Only | Print | Product List | Glossary On
Versions: 1 2 3 4 5 6 7 8 9 10 11 12 13 14 15 16 17 18 19 20 21 22 23 24 25 26 27 28 29 30 31 32 33 34 35 36 37 38 39 40 41 42 43 44 45 46 47 48 49 50
220
AXUS43 KLBF 230610
MISLBF


WESTERN AND NORTH CENTRAL NEBRASKA HOURLY WEATHER ROUNDUP
NATIONAL WEATHER SERVICE NORTH PLATTE NE
100 AM CDT SAT SEP 23 2017

NOTE: "FAIR" INDICATES FEW OR NO CLOUDS BELOW 12,000 FEET WITH NO
SIGNIFICANT WEATHER AND/OR OBSTRUCTIONS TO VISIBILITY.

NOTE: STATIONS NOT REPORTING VARIABLES SUCH AS SKY/WEATHER OR
PRESSURE ARE PROVIDED BY RAWS AND APRS NETWORKS AND ARE NOT UNDER
NATIONAL WEATHER SERVICE QUALITY CONTROL.

...OBSERVATIONS IN AND NEAR THE EASTERN PANHANDLE OF NEBRASKA...

CITY           SKY/WX    TMP DP  RH WIND       PRES   REMARKS
PINE RIDGE     CLEAR     47  39  74 NE10      29.97F
GORDON         FAIR      46  39  77 N9        29.97R
CHADRON        CLEAR     48  38  68 NE9       29.96F
ALLIANCE       CLOUDY    47  39  74 NE9       29.96R
SIDNEY         PTCLDY    51  43  74 NE18      29.94R
CRESCENT LAKE    N/A     49  44  82 NE13G21     N/A
$$

...OBSERVATIONS IN NORTHERN NEBRASKA AND FAR SOUTHERN SOUTH DAKOTA...

CITY           SKY/WX    TMP DP  RH WIND       PRES   REMARKS
WINNER         CLOUDY    53  47  79 N14       29.94S THUNDER
VALENTINE      TSTM      53  44  71 N12G21    29.98R
THEDFORD       CLOUDY    53  48  83 N10G18    29.96R THUNDER
AINSWORTH      PTCLDY    52  50  93 N9        29.94R
O`NEILL        CLOUDY    58  56  91 N10G16    29.90S
ORD            PTCLDY    64  55  72 NW7       29.85R
BROKEN BOW     CLOUDY    62  53  72 N20G26    29.85R
VALENTINE NWR    N/A     50  46  84 N7G16       N/A
HALSEY           N/A     54  49  83 N6G16       N/A
BUTTE            N/A     55  51  88 N10G18      N/A
CHAMBERS         N/A     60  54  80 E3          N/A
EWING            N/A     63  58  83 MISG        N/A
$$

...OBSERVATIONS IN SOUTHWEST NEBRASKA AND FAR NORTHEAST COLORADO...

CITY           SKY/WX    TMP DP  RH WIND       PRES   REMARKS
WRAY           FAIR      75  55  50 NW10      29.82R
HOLYOKE        FAIR      59  50  72 NE14      29.86S
IMPERIAL       PTCLDY    62  50  64 N7        29.83R
OGALLALA       PTCLDY    55  50  82 NE9G20    29.89R
NORTH PLATTE   PTCLDY    58  51  78 N9        29.88R
MCCOOK         PTCLDY    79  63  57 S20G35    29.79R
LEXINGTON      PTCLDY    77  61  57 S16       29.81R
STAPLETON        N/A     53  50  89 CALM        N/A
GOTHENBURG       N/A     81  57  43 S8          N/A
CALLAWAY         N/A     63  56  78 N6          N/A
$$

...OBSERVATIONS IN CENTRAL LINCOLN COUNTY AREA...

CITY           SKY/WX    TMP DP  RH WIND       PRES   REMARKS
N.P. AIRPORT   PTCLDY    58  51  78 N9        29.88R
N.P. DOWNTOWN    N/A     57  51  80 NE7G15      N/A
N.P. SOUTHEAST   N/A     57  51  80 N8G20       N/A
N.P. HILLCREST   N/A     56  51  82 NE23G32     N/A
$$

...SOME OBSERVATIONS FROM AROUND THE REGION...

CITY           SKY/WX    TMP DP  RH WIND       PRES   REMARKS
DENVER         LGT RAIN  54  40  59 N8        29.98R
LIMON            N/A    N/A N/A N/A MISG      29.93S
ASPEN          CLOUDY    43  36  76 CALM      29.97S
LARAMIE        CLOUDY    42  36  79 SE6       29.98F
CASPER         CLOUDY    42  38  85 N15       29.98F
CHEYENNE       CLOUDY    45  36  70 N7        30.00F
SCOTTSBLUFF    CLOUDY    50  38  63 NE8       29.97R
GRAND ISLAND   CLEAR     77  65  66 S17       29.84S
OMAHA          CLEAR     79  68  69 S23       29.86F
SIOUX FALLS    PTCLDY    67  64  90 NE3       29.84R
PIERRE         CLOUDY    51  46  83 NW15      29.93S
BISMARCK       CLOUDY    50  44  80 NW6       30.05R
KANSAS CITY    CLEAR     72  68  87 S9        29.96S
HILL CITY      PTCLDY    78  64  61 S16G23    29.83F
WICHITA        PTCLDY    76  68  76 S13       29.92S
DODGE CITY     CLEAR     74  64  71 S21       29.89F
OKLAHOMA CITY  CLEAR     74  64  71 S10       29.93S
DALLAS         CLEAR     79  68  69 SE8       29.92S
AMARILLO       CLEAR     72  60  66 SE16      29.93F
$$




USA.gov is the U.S. government's official web portal to all federal, state and local government web resources and services.